Weather History for Evanston, WY

Change the Weather History Date:

Friday, March 15, 2013

  Actual Average Record
Temperature  
Mean Temperature 47 °F 31 °F  
Max Temperature 56 °F 39 °F 56 °F (2013)
Min Temperature 38 °F 22 °F 8 °F (2002)
Degree Days  
Heating Degree Days 18 34  
Month to date heating degree days 473 550  
Since 1 July heating degree days 6068 6558  
Cooling Degree Days 0 0  
Month to date cooling degree days 0 0  
Year to date cooling degree days 0 0  
Moisture  
Dew Point 23 °F    
Average Humidity 37    
Maximum Humidity 54    
Minimum Humidity 20    
Precipitation  
Precipitation 0.00 in 0.02 in 0.02 in (2003)
Month to date precipitation 0.15 0.31  
Year to date precipitation 0.62 1.46  
Sea Level Pressure  
Sea Level Pressure 30.00 in    
Wind  
Wind Speed 12 mph (WSW)    
Max Wind Speed 21 mph    
Max Gust Speed 25 mph    
Visibility 10 miles    
Events      
T = Trace of Precipitation, MM = Missing Value Source: NWS Daily Summary

Daily Weather History Graph

Daily Weather History Graph

Search for Another Location

Airport:

Trip Planner

Search our weather history database for the weather conditions in past years. The results will help you decide how hot, cold, wet, or windy it might be!

Date:

Astronomy

Mar. 15, 2013 Rise Set
Actual Time 7:35 AM MDT 7:31 PM MDT
Civil Twilight 7:07 AM MDT 7:58 PM MDT
Nautical Twilight 6:35 AM MDT 8:30 PM MDT
Astronomical Twilight 6:03 AM MDT 9:03 PM MDT
Moon 9:25 AM MDT (3/15) 11:51 PM MDT (3/15)
Length of Visible Light 12h 50m
Length of Day
11h 55m
Waxing Crescent, 16% of the Moon is Illuminated
Mar 15
Waxing Crescent
Mar 19
First Quarter
Mar 27
Full
Apr 2
Last Quarter
Apr 10
New

Hourly Weather History & Observations

Time (MDT) Temp. Windchill Dew Point Humidity Pressure Visibility Wind Dir Wind Speed Gust Speed Precip Events Conditions
12:53 AM 41.0 °F 34.3 °F 25.0 °F 53% 30.09 in 10.0 mi WSW 11.5 mph - N/A   Clear
1:53 AM 42.1 °F 35.7 °F 24.1 °F 49% 30.06 in 10.0 mi SW 11.5 mph - N/A   Clear
3:53 AM 42.1 °F 35.2 °F 24.1 °F 49% 30.01 in 10.0 mi WSW 12.7 mph - N/A   Clear
4:53 AM 42.1 °F 35.7 °F 24.1 °F 49% 30.03 in 10.0 mi WSW 11.5 mph - N/A   Clear
6:53 AM 39.9 °F 35.1 °F 23.0 °F 51% 30.04 in 10.0 mi WSW 6.9 mph - N/A   Clear
7:53 AM 37.9 °F 30.9 °F 23.0 °F 55% 30.07 in 10.0 mi WSW 10.4 mph - N/A   Clear
8:53 AM 43.0 °F 38.2 °F 26.1 °F 51% 30.06 in 10.0 mi West 8.1 mph - N/A   Clear
9:53 AM 48.0 °F - 28.0 °F 46% 30.04 in 10.0 mi WSW 9.2 mph - N/A   Clear
10:53 AM 51.1 °F - 27.0 °F 39% 30.04 in 10.0 mi WSW 11.5 mph - N/A   Clear
11:53 AM 53.1 °F - 21.9 °F 30% 30.01 in 10.0 mi WSW 18.4 mph - N/A   Clear
12:53 PM 54.0 °F - 21.0 °F 28% 30.01 in 10.0 mi WSW 15.0 mph 24.2 mph N/A   Clear
1:53 PM 55.0 °F - 17.1 °F 23% 29.98 in 10.0 mi West 15.0 mph - N/A   Clear
2:53 PM 55.9 °F - 17.1 °F 22% 29.97 in 10.0 mi West 16.1 mph - N/A   Clear
3:53 PM 55.0 °F - 18.0 °F 23% 29.94 in 10.0 mi WSW 18.4 mph - N/A   Overcast
4:53 PM 54.0 °F - 17.1 °F 23% 29.95 in 10.0 mi WSW 16.1 mph - N/A   Mostly Cloudy
5:53 PM 50.0 °F - 19.9 °F 31% 29.97 in 10.0 mi West 13.8 mph - N/A   Mostly Cloudy
6:53 PM 48.0 °F - 23.0 °F 37% 29.98 in 10.0 mi WSW 10.4 mph - N/A   Overcast
7:53 PM 45.0 °F 38.9 °F 24.1 °F 44% 30.00 in 10.0 mi West 12.7 mph - N/A   Scattered Clouds
8:53 PM 44.1 °F 39.0 °F 23.0 °F 43% 29.98 in 10.0 mi West 9.2 mph - N/A   Mostly Cloudy
9:53 PM 43.0 °F 37.7 °F 24.1 °F 47% 29.96 in 10.0 mi West 9.2 mph - N/A   Clear
10:53 PM 39.0 °F 33.4 °F 24.1 °F 55% 29.96 in 10.0 mi WSW 8.1 mph - N/A   Clear
11:53 PM 37.9 °F 32.1 °F 24.1 °F 57% 29.94 in 10.0 mi WSW 8.1 mph - N/A   Clear